This is the latest recevied weather packets stored in our database for station/object N2ZVN. If no packets are shown the sender has not sent any weather packets the latest 10 day(s).
| Time | Temp. | Humidity | Pressure | Rain* | Wind** | Luminosity | Snow |
|---|---|---|---|---|---|---|---|
| 1777849130 | 11.67° C | 59% | 1009.9 hPa | 0 mm | - | 10 W/m² | - |
| 1777848825 | 12.22° C | 56% | 1010 hPa | 0 mm | - | 17 W/m² | - |
| 1777848522 | 12.22° C | 55% | 1010.1 hPa | 0 mm | - | 16 W/m² | - |
| 1777848219 | 12.22° C | 53% | 1009.8 hPa | 0 mm | - | 26 W/m² | - |
| 1777847917 | 12.22° C | 52% | 1009.8 hPa | 0 mm | - | 35 W/m² | - |
| 1777847614 | 12.22° C | 52% | 1009.8 hPa | 0 mm | - | 60 W/m² | - |
| 1777847310 | 12.22° C | 51% | 1009.8 hPa | 0 mm | - | 47 W/m² | - |
| 1777847009 | 12.22° C | 52% | 1009.6 hPa | 0 mm | - | 69 W/m² | - |
| 1777846706 | 12.22° C | 50% | 1009.6 hPa | 0 mm | - | 75 W/m² | - |
| 1777846405 | 12.22° C | 50% | 1009.7 hPa | 0 mm | - | 63 W/m² | - |
| 1777846101 | 12.22° C | 50% | 1009.6 hPa | 0 mm | - | 52 W/m² | - |
| 1777845798 | 12.22° C | 50% | 1009.8 hPa | 0 mm | - | 49 W/m² | - |
| 1777845494 | 12.22° C | 49% | 1009.6 hPa | 0 mm | - | 40 W/m² | - |
| 1777845192 | 12.22° C | 50% | 1009.5 hPa | 0 mm | - | 43 W/m² | - |
| 1777844890 | 12.22° C | 49% | 1009.5 hPa | 0 mm | - | 49 W/m² | - |
| 1777844586 | 12.22° C | 49% | 1009.6 hPa | 0 mm | - | 66 W/m² | - |
| 1777844284 | 12.22° C | 47% | 1009.6 hPa | 0 mm | - | 65 W/m² | - |
| 1777843981 | 12.22° C | 48% | 1009.4 hPa | 0 mm | - | 72 W/m² | - |
| 1777843678 | 12.22° C | 47% | 1009.3 hPa | 0 mm | - | 48 W/m² | - |
| 1777843376 | 12.78° C | 46% | 1009.6 hPa | 0 mm | - | 37 W/m² | - |
| 1777843073 | 12.78° C | 45% | 1009.5 hPa | 0 mm | - | 44 W/m² | - |
| 1777842769 | 12.78° C | 46% | 1009.4 hPa | 0 mm | - | 41 W/m² | - |
| 1777842464 | 12.78° C | 45% | 1009.6 hPa | 0 mm | - | 52 W/m² | - |
| 1777842162 | 12.78° C | 44% | 1009.5 hPa | 0 mm | - | 39 W/m² | - |
| 1777841862 | 12.78° C | 44% | 1009.4 hPa | 0 mm | - | 36 W/m² | - |
* Rain latest hour (hover to see other rain measurements)
** Current wind speed in m/s (hover to see current wind gust speed)